Location: Newark
(51.0000°N, 11.4100°E)
Time: 01:45:48
(UTC+00:00)

N. Korean satellite - Pass Details

Date: 28 October 2019
Orbit: 456 x 506 km, 97.2° (Epoch: 16 November)

Event Time Altitude Azimuth Distance (km) Brightness Sun altitude
Rises 16:43:17 0° 186° (S) 2,478 10.4 -7.9°
Reaches altitude 10° 16:45:26 10° 196° (SSW) 1,615 9.6 -8.2°
Maximum altitude 16:48:38 35° 263° (W) 783 8.5 -8.7°
Drops below altitude 10° 16:51:55 10° 331° (NNW) 1,652 9.5 -9.2°
Sets 16:54:07 0° 340° (NNW) 2,545 10.4 -9.6°
